User: anonymous   Login
Location: Onan Observatory
(44.8103°N, 93.9397°W)
Time: 20:23:59
(UTC-05:00)
Language:

Iridium 90 - Orbit

View from above orbital plane
View from above orbital plane
View from above satellite
View from above satellite

Ground track
Ground track

The orbit data is extracted from the following two-line orbital elements,

1 27373U 02005B   17112.85244209 +.00000263 +00000-0 +72520-4 0  9996
2 27373 086.4511 013.2091 0002112 086.5804 273.5638 14.42960628803302
Epoch (UTC): 22 April 2017 20:27:30
Eccentricity: 0.0002112
inclination: 86.4511°
perigee height: 747 km
apogee height: 750 km
right ascension of ascending node: 13.2091°
argument of perigee: 86.5804°
revolutions per day: 14.42960628
mean anomaly at epoch: 273.5638°
orbit number at epoch: 80330

The dashed part of the orbit path shows where the satellite is in the earth's shadow,  

DLR